Time,TemperatureF,DewpointF,PressureIn,WindDirection,WindDirectionDegrees,WindSpeedMPH,WindSpeedGustMPH,Humidity,HourlyPrecipIn,Conditions,Clouds,dailyrainin,SoftwareType,DateUTC
2013-02-26 00:00:00,56.5,39.0,29.63,WSW,258,15.0,24.0,52,0.00,,,1.27,meteohub,2013-02-26 06:00:00,
2013-02-26 00:05:00,55.8,39.4,29.63,WNW,282,15.0,24.0,54,0.00,,,0.00,meteohub,2013-02-26 06:05:00,
2013-02-26 00:11:00,55.4,38.1,29.63,West,263,10.0,25.0,52,0.00,,,0.00,meteohub,2013-02-26 06:11:00,
2013-02-26 00:16:00,55.2,37.9,29.64,West,272,18.0,25.0,52,0.00,,,0.00,meteohub,2013-02-26 06:16:00,
2013-02-26 00:21:00,55.2,36.9,29.64,West,270,14.0,25.0,50,0.00,,,0.00,meteohub,2013-02-26 06:21:00,
2013-02-26 00:26:00,55.0,37.8,29.65,West,262,12.0,23.0,52,0.00,,,0.00,meteohub,2013-02-26 06:26:00,
2013-02-26 00:31:00,54.7,37.4,29.65,West,261,10.0,23.0,52,0.00,,,0.00,meteohub,2013-02-26 06:31:00,
2013-02-26 00:36:00,54.3,37.0,29.65,WSW,257,14.0,23.0,52,0.00,,,0.00,meteohub,2013-02-26 06:36:00,
2013-02-26 00:41:00,54.1,36.9,29.65,West,263,18.0,25.0,52,0.00,,,0.00,meteohub,2013-02-26 06:41:00,
2013-02-26 00:46:00,54.0,37.2,29.65,West,274,14.0,25.0,53,0.00,,,0.00,meteohub,2013-02-26 06:46:00,
2013-02-26 00:51:00,53.4,37.6,29.65,West,270,12.0,25.0,55,0.00,,,0.00,meteohub,2013-02-26 06:51:00,
2013-02-26 00:56:00,53.2,37.4,29.65,West,264,14.0,21.0,55,0.00,,,0.00,meteohub,2013-02-26 06:56:00,
2013-02-26 01:01:00,53.1,37.8,29.66,West,281,12.0,18.0,56,0.00,,,0.00,meteohub,2013-02-26 07:01:00,
2013-02-26 01:06:00,52.9,37.6,29.66,West,281,11.0,18.0,56,0.00,,,0.00,meteohub,2013-02-26 07:06:00,
2013-02-26 01:11:00,52.7,38.3,29.67,West,268,13.0,17.0,58,0.00,,,0.00,meteohub,2013-02-26 07:11:00,
2013-02-26 01:16:00,52.7,37.4,29.67,West,267,13.0,18.0,56,0.00,,,0.00,meteohub,2013-02-26 07:16:00,
2013-02-26 01:21:00,52.7,36.5,29.67,West,263,14.0,25.0,54,0.00,,,0.00,meteohub,2013-02-26 07:21:00,
2013-02-26 01:26:00,52.3,37.0,29.67,West,272,11.0,25.0,56,0.00,,,0.00,meteohub,2013-02-26 07:26:00,
2013-02-26 01:31:00,52.2,36.9,29.67,West,261,18.0,25.0,56,0.00,,,0.00,meteohub,2013-02-26 07:31:00,
2013-02-26 01:36:00,52.0,37.2,29.67,WSW,250,11.0,24.0,57,0.00,,,0.00,meteohub,2013-02-26 07:36:00,
2013-02-26 01:41:00,51.4,37.9,29.67,West,264,13.0,24.0,60,0.00,,,0.00,meteohub,2013-02-26 07:41:00,
2013-02-26 01:46:00,50.9,37.9,29.67,West,276,9.0,20.0,61,0.00,,,0.00,meteohub,2013-02-26 07:46:00,
2013-02-26 01:51:00,50.7,37.8,29.68,West,261,11.0,17.0,61,0.00,,,0.00,meteohub,2013-02-26 07:51:00,
2013-02-26 01:56:00,50.4,38.3,29.68,West,261,10.0,17.0,63,0.00,,,0.00,meteohub,2013-02-26 07:56:00,
2013-02-26 02:01:00,50.4,37.8,29.67,West,266,13.0,17.0,62,0.00,,,0.00,meteohub,2013-02-26 08:01:00,
2013-02-26 02:06:00,50.7,37.8,29.68,West,271,11.0,21.0,61,0.00,,,0.00,meteohub,2013-02-26 08:06:00,
2013-02-26 02:11:00,50.2,38.1,29.68,West,269,10.0,21.0,63,0.00,,,0.00,meteohub,2013-02-26 08:11:00,
2013-02-26 02:16:00,50.2,38.1,29.68,West,265,13.0,21.0,63,0.00,,,0.00,meteohub,2013-02-26 08:16:00,
2013-02-26 02:21:00,49.6,38.3,29.68,WSW,255,15.0,17.0,65,0.00,,,0.00,meteohub,2013-02-26 08:21:00,
2013-02-26 02:26:00,49.6,38.3,29.68,West,271,13.0,17.0,65,0.00,,,0.00,meteohub,2013-02-26 08:26:00,
2013-02-26 02:31:00,49.6,37.2,29.68,West,277,14.0,25.0,62,0.00,,,0.00,meteohub,2013-02-26 08:31:00,
2013-02-26 02:36:00,49.8,36.9,29.68,West,272,15.0,25.0,61,0.00,,,0.00,meteohub,2013-02-26 08:36:00,
2013-02-26 02:41:00,49.6,36.3,29.68,West,266,14.0,25.0,60,0.00,,,0.00,meteohub,2013-02-26 08:41:00,
2013-02-26 02:46:00,49.6,37.2,29.68,West,270,16.0,26.0,62,0.00,,,0.00,meteohub,2013-02-26 08:46:00,
2013-02-26 02:51:00,49.5,37.0,29.68,West,271,11.0,26.0,62,0.00,,,0.00,meteohub,2013-02-26 08:51:00,
2013-02-26 02:56:00,49.3,37.2,29.69,West,277,18.0,26.0,63,0.00,,,0.00,meteohub,2013-02-26 08:56:00,
2013-02-26 03:01:00,49.3,36.3,29.69,WNW,284,16.0,24.0,61,0.00,,,0.00,meteohub,2013-02-26 09:01:00,
2013-02-26 03:06:00,49.1,36.3,29.69,West,263,19.0,29.0,61,0.00,,,0.00,meteohub,2013-02-26 09:06:00,
2013-02-26 03:11:00,48.9,36.1,29.69,WNW,286,19.0,29.0,61,0.00,,,0.00,meteohub,2013-02-26 09:11:00,
2013-02-26 03:16:00,48.7,36.3,29.69,West,275,10.0,29.0,62,0.00,,,0.00,meteohub,2013-02-26 09:16:00,
2013-02-26 03:21:00,48.2,36.1,29.70,West,265,15.0,29.0,63,0.00,,,0.00,meteohub,2013-02-26 09:21:00,
2013-02-26 03:26:00,48.2,36.1,29.70,West,276,14.0,29.0,63,0.00,,,0.00,meteohub,2013-02-26 09:26:00,
2013-02-26 03:31:00,48.2,36.1,29.70,West,281,15.0,26.0,63,0.00,,,0.00,meteohub,2013-02-26 09:31:00,
2013-02-26 03:36:00,48.0,36.0,29.70,West,273,13.0,26.0,63,0.00,,,0.00,meteohub,2013-02-26 09:36:00,
2013-02-26 03:42:00,47.8,35.8,29.70,West,271,12.0,26.0,63,0.00,,,0.00,meteohub,2013-02-26 09:42:00,
2013-02-26 03:47:00,47.7,36.5,29.70,WSW,252,9.0,26.0,65,0.00,,,0.00,meteohub,2013-02-26 09:47:00,
2013-02-26 03:52:00,47.5,36.3,29.70,West,268,17.0,26.0,65,0.00,,,0.00,meteohub,2013-02-26 09:52:00,
2013-02-26 03:57:00,47.5,36.3,29.70,WSW,255,16.0,23.0,65,0.00,,,0.00,meteohub,2013-02-26 09:57:00,
2013-02-26 04:02:00,47.3,36.1,29.70,West,259,10.0,23.0,65,0.00,,,0.00,meteohub,2013-02-26 10:02:00,
2013-02-26 04:07:00,46.9,36.5,29.71,West,266,12.0,23.0,67,0.00,,,0.00,meteohub,2013-02-26 10:07:00,
2013-02-26 04:12:00,46.9,36.1,29.71,West,279,15.0,20.0,66,0.00,,,0.00,meteohub,2013-02-26 10:12:00,
2013-02-26 04:17:00,47.1,36.0,29.71,WSW,258,14.0,24.0,65,0.00,,,0.00,meteohub,2013-02-26 10:17:00,
2013-02-26 04:22:00,47.1,36.0,29.71,West,271,20.0,24.0,65,0.00,,,0.00,meteohub,2013-02-26 10:22:00,
2013-02-26 04:27:00,46.9,36.1,29.72,West,281,15.0,24.0,66,0.00,,,0.00,meteohub,2013-02-26 10:27:00,
2013-02-26 04:32:00,46.9,36.1,29.72,WNW,285,9.0,24.0,66,0.00,,,0.00,meteohub,2013-02-26 10:32:00,
2013-02-26 04:37:00,46.9,36.1,29.72,West,263,9.0,23.0,66,0.00,,,0.00,meteohub,2013-02-26 10:37:00,
2013-02-26 04:42:00,46.6,36.1,29.71,West,265,16.0,21.0,67,0.00,,,0.00,meteohub,2013-02-26 10:42:00,
2013-02-26 04:47:00,46.8,36.0,29.71,West,271,19.0,23.0,66,0.00,,,0.00,meteohub,2013-02-26 10:47:00,
2013-02-26 04:52:00,46.6,36.5,29.71,West,267,10.0,23.0,68,0.00,,,0.00,meteohub,2013-02-26 10:52:00,
2013-02-26 04:57:00,46.6,36.1,29.72,West,263,10.0,23.0,67,0.00,,,0.00,meteohub,2013-02-26 10:57:00,
2013-02-26 05:02:00,46.6,36.1,29.71,WSW,253,18.0,19.0,67,0.00,,,0.00,meteohub,2013-02-26 11:02:00,
2013-02-26 05:07:00,46.8,36.0,29.72,West,272,12.0,25.0,66,0.00,,,0.00,meteohub,2013-02-26 11:07:00,
2013-02-26 05:12:00,46.2,36.3,29.72,West,264,11.0,25.0,68,0.00,,,0.00,meteohub,2013-02-26 11:12:00,
2013-02-26 05:17:00,46.2,36.7,29.73,West,259,14.0,25.0,69,0.00,,,0.00,meteohub,2013-02-26 11:17:00,
2013-02-26 05:22:00,46.0,36.9,29.73,West,259,10.0,16.0,70,0.00,,,0.00,meteohub,2013-02-26 11:22:00,
2013-02-26 05:27:00,45.9,37.0,29.73,West,261,10.0,16.0,71,0.00,,,0.00,meteohub,2013-02-26 11:27:00,
2013-02-26 05:32:00,46.0,37.2,29.73,WSW,254,10.0,16.0,71,0.00,,,0.00,meteohub,2013-02-26 11:32:00,
2013-02-26 05:37:00,46.0,36.9,29.74,West,267,9.0,17.0,70,0.00,,,0.00,meteohub,2013-02-26 11:37:00,
2013-02-26 05:42:00,46.0,37.2,29.73,West,260,11.0,17.0,71,0.00,,,0.00,meteohub,2013-02-26 11:42:00,
2013-02-26 05:47:00,46.0,37.2,29.74,WSW,257,11.0,17.0,71,0.00,,,0.00,meteohub,2013-02-26 11:47:00,
2013-02-26 05:52:00,46.0,37.6,29.74,West,261,11.0,16.0,72,0.00,,,0.00,meteohub,2013-02-26 11:52:00,
2013-02-26 05:57:00,46.0,37.6,29.75,West,260,8.0,16.0,72,0.00,,,0.00,meteohub,2013-02-26 11:57:00,
2013-02-26 06:02:00,46.2,37.8,29.75,West,265,10.0,16.0,72,0.00,,,0.00,meteohub,2013-02-26 12:02:00,
2013-02-26 06:07:00,46.6,37.4,29.75,West,268,15.0,21.0,70,0.00,,,0.00,meteohub,2013-02-26 12:07:00,
2013-02-26 06:12:00,46.6,37.4,29.75,West,263,15.0,21.0,70,0.00,,,0.00,meteohub,2013-02-26 12:12:00,
2013-02-26 06:17:00,46.6,37.8,29.76,WSW,256,13.0,21.0,71,0.00,,,0.00,meteohub,2013-02-26 12:17:00,
2013-02-26 06:22:00,46.2,37.4,29.75,West,261,13.0,21.0,71,0.00,,,0.00,meteohub,2013-02-26 12:22:00,
2013-02-26 06:27:00,46.2,37.8,29.76,West,265,12.0,18.0,72,0.00,,,0.00,meteohub,2013-02-26 12:27:00,
2013-02-26 06:32:00,46.2,37.4,29.75,West,271,17.0,18.0,71,0.00,,,0.00,meteohub,2013-02-26 12:32:00,
2013-02-26 06:37:00,46.0,37.2,29.76,WSW,244,11.0,22.0,71,0.00,,,0.00,meteohub,2013-02-26 12:37:00,
2013-02-26 06:42:00,45.9,37.4,29.76,West,265,9.0,22.0,72,0.00,,,0.00,meteohub,2013-02-26 12:42:00,
2013-02-26 06:47:00,45.9,37.0,29.76,WNW,296,13.0,22.0,71,0.00,,,0.00,meteohub,2013-02-26 12:47:00,
2013-02-26 06:52:00,46.0,36.5,29.76,West,262,10.0,22.0,69,0.00,,,0.00,meteohub,2013-02-26 12:52:00,
2013-02-26 06:57:00,45.9,36.7,29.76,WNW,284,15.0,22.0,70,0.00,,,0.00,meteohub,2013-02-26 12:57:00,
2013-02-26 07:02:00,46.0,36.1,29.77,WNW,288,19.0,23.0,68,0.00,,,0.00,meteohub,2013-02-26 13:02:00,
2013-02-26 07:07:00,46.0,36.5,29.76,WNW,285,9.0,23.0,69,0.00,,,0.00,meteohub,2013-02-26 13:07:00,
2013-02-26 07:12:00,46.2,36.0,29.76,West,271,13.0,23.0,67,0.00,,,0.00,meteohub,2013-02-26 13:12:00,
2013-02-26 07:17:00,46.2,36.0,29.76,West,273,14.0,20.0,67,0.00,,,0.00,meteohub,2013-02-26 13:17:00,
2013-02-26 07:22:00,46.4,36.0,29.77,West,262,9.0,20.0,67,0.00,,,0.00,meteohub,2013-02-26 13:22:00,
2013-02-26 07:27:00,46.4,36.0,29.77,West,265,12.0,19.0,67,0.00,,,0.00,meteohub,2013-02-26 13:27:00,
2013-02-26 07:32:00,46.6,36.1,29.78,West,271,9.0,19.0,67,0.00,,,0.00,meteohub,2013-02-26 13:32:00,
2013-02-26 07:37:00,46.6,36.5,29.78,West,264,16.0,19.0,68,0.00,,,0.00,meteohub,2013-02-26 13:37:00,
2013-02-26 07:42:00,46.8,36.3,29.78,West,272,11.0,19.0,67,0.00,,,0.00,meteohub,2013-02-26 13:42:00,
2013-02-26 07:47:00,46.8,36.0,29.78,West,278,13.0,23.0,66,0.00,,,0.00,meteohub,2013-02-26 13:47:00,
2013-02-26 07:52:00,46.9,36.1,29.78,West,267,11.0,23.0,66,0.00,,,0.00,meteohub,2013-02-26 13:52:00,
2013-02-26 07:57:00,47.1,37.0,29.78,West,271,14.0,23.0,68,0.00,,,0.00,meteohub,2013-02-26 13:57:00,
2013-02-26 08:02:00,47.1,36.0,29.79,West,274,17.0,20.0,65,0.00,,,0.00,meteohub,2013-02-26 14:02:00,
2013-02-26 08:07:00,47.3,36.1,29.79,West,263,12.0,20.0,65,0.00,,,0.00,meteohub,2013-02-26 14:07:00,
2013-02-26 08:12:00,47.7,36.9,29.80,West,277,13.0,20.0,66,0.00,,,0.00,meteohub,2013-02-26 14:12:00,
2013-02-26 08:17:00,47.5,36.7,29.80,West,260,14.0,24.0,66,0.00,,,0.00,meteohub,2013-02-26 14:17:00,
2013-02-26 08:22:00,47.8,37.4,29.81,WSW,256,14.0,24.0,67,0.00,,,0.00,meteohub,2013-02-26 14:22:00,
2013-02-26 08:27:00,47.7,36.5,29.81,WNW,282,13.0,24.0,65,0.00,,,0.00,meteohub,2013-02-26 14:27:00,
2013-02-26 08:32:00,47.7,36.1,29.81,WSW,246,18.0,29.0,64,0.00,,,0.00,meteohub,2013-02-26 14:32:00,
2013-02-26 08:37:00,47.8,36.7,29.81,West,264,18.0,29.0,65,0.00,,,0.00,meteohub,2013-02-26 14:37:00,
2013-02-26 08:42:00,48.0,36.9,29.81,West,270,17.0,29.0,65,0.00,,,0.00,meteohub,2013-02-26 14:42:00,
2013-02-26 08:47:00,48.4,37.2,29.82,West,271,13.0,26.0,65,0.00,,,0.00,meteohub,2013-02-26 14:47:00,
2013-02-26 08:52:00,48.7,37.9,29.82,WNW,289,15.0,22.0,66,0.00,,,0.00,meteohub,2013-02-26 14:52:00,
2013-02-26 08:57:00,48.4,36.7,29.82,West,265,17.0,25.0,64,0.00,,,0.00,meteohub,2013-02-26 14:57:00,
2013-02-26 09:02:00,48.0,36.5,29.82,WNW,298,19.0,27.0,64,0.00,,,0.00,meteohub,2013-02-26 15:02:00,
2013-02-26 09:07:00,48.7,37.0,29.83,West,281,16.0,27.0,64,0.00,,,0.00,meteohub,2013-02-26 15:07:00,
2013-02-26 09:12:00,48.9,37.2,29.82,WNW,300,22.0,27.0,64,0.00,,,0.00,meteohub,2013-02-26 15:12:00,
2013-02-26 09:17:00,48.7,37.0,29.82,NW,304,8.0,24.0,64,0.00,,,0.00,meteohub,2013-02-26 15:17:00,
2013-02-26 09:22:00,49.3,37.6,29.83,WNW,292,13.0,23.0,64,0.00,,,0.00,meteohub,2013-02-26 15:22:00,
2013-02-26 09:27:00,49.3,37.2,29.83,West,274,19.0,22.0,63,0.00,,,0.00,meteohub,2013-02-26 15:27:00,
2013-02-26 09:32:00,49.6,37.9,29.83,WNW,288,15.0,22.0,64,0.00,,,0.00,meteohub,2013-02-26 15:32:00,
2013-02-26 09:37:00,49.3,37.2,29.83,West,272,21.0,23.0,63,0.00,,,0.00,meteohub,2013-02-26 15:37:00,
2013-02-26 09:42:00,49.5,37.8,29.83,WNW,282,14.0,25.0,64,0.00,,,0.00,meteohub,2013-02-26 15:42:00,
2013-02-26 09:47:00,49.6,37.9,29.83,West,272,13.0,25.0,64,0.00,,,0.00,meteohub,2013-02-26 15:47:00,
2013-02-26 09:52:00,49.5,37.4,29.83,West,267,17.0,25.0,63,0.00,,,0.00,meteohub,2013-02-26 15:52:00,
2013-02-26 09:57:00,49.8,38.5,29.83,West,265,15.0,25.0,65,0.00,,,0.00,meteohub,2013-02-26 15:57:00,
2013-02-26 10:02:00,50.2,37.6,29.83,West,270,13.0,25.0,62,0.00,,,0.00,meteohub,2013-02-26 16:02:00,
2013-02-26 10:07:00,49.6,37.2,29.84,West,279,18.0,23.0,62,0.00,,,0.00,meteohub,2013-02-26 16:07:00,
2013-02-26 10:12:00,50.2,38.5,29.84,WNW,286,8.0,23.0,64,0.00,,,0.00,meteohub,2013-02-26 16:12:00,
2013-02-26 10:17:00,50.5,38.8,29.84,West,269,13.0,23.0,64,0.00,,,0.00,meteohub,2013-02-26 16:17:00,
2013-02-26 10:22:00,50.5,38.5,29.84,West,278,15.0,21.0,63,0.00,,,0.00,meteohub,2013-02-26 16:22:00,
2013-02-26 10:27:00,50.7,38.1,29.83,WNW,284,8.0,20.0,62,0.00,,,0.00,meteohub,2013-02-26 16:27:00,
2013-02-26 10:32:00,50.7,37.8,29.84,WSW,256,10.0,20.0,61,0.00,,,0.00,meteohub,2013-02-26 16:32:00,
2013-02-26 10:37:00,50.9,37.9,29.84,WNW,284,12.0,19.0,61,0.00,,,0.00,meteohub,2013-02-26 16:37:00,
2013-02-26 10:42:00,51.1,38.5,29.84,WNW,292,17.0,19.0,62,0.00,,,0.00,meteohub,2013-02-26 16:42:00,
2013-02-26 10:47:00,51.1,37.8,29.85,WNW,284,17.0,21.0,60,0.00,,,0.00,meteohub,2013-02-26 16:47:00,
2013-02-26 10:52:00,51.3,38.7,29.84,WSW,255,11.0,23.0,62,0.00,,,0.00,meteohub,2013-02-26 16:52:00,
2013-02-26 10:57:00,51.4,39.2,29.84,West,262,9.0,23.0,63,0.00,,,0.00,meteohub,2013-02-26 16:57:00,
2013-02-26 11:02:00,51.6,38.7,29.84,West,273,19.0,23.0,61,0.00,,,0.00,meteohub,2013-02-26 17:02:00,
2013-02-26 11:07:00,51.8,38.8,29.84,WNW,286,8.0,19.0,61,0.00,,,0.00,meteohub,2013-02-26 17:07:00,
2013-02-26 11:12:00,51.8,38.8,29.84,WSW,257,11.0,19.0,61,0.00,,,0.00,meteohub,2013-02-26 17:12:00,
2013-02-26 11:17:00,52.0,38.5,29.84,WSW,251,13.0,21.0,60,0.00,,,0.00,meteohub,2013-02-26 17:17:00,
2013-02-26 11:22:00,52.3,38.8,29.85,West,266,15.0,21.0,60,0.00,,,0.00,meteohub,2013-02-26 17:22:00,
2013-02-26 11:27:00,52.3,38.8,29.85,WSW,255,13.0,21.0,60,0.00,,,0.00,meteohub,2013-02-26 17:27:00,
2013-02-26 11:32:00,52.2,38.7,29.85,WSW,252,15.0,21.0,60,0.00,,,0.00,meteohub,2013-02-26 17:32:00,
2013-02-26 11:37:00,52.3,39.4,29.85,West,265,17.0,22.0,61,0.00,,,0.00,meteohub,2013-02-26 17:37:00,
2013-02-26 11:42:00,52.3,38.8,29.85,West,279,16.0,22.0,60,0.00,,,0.00,meteohub,2013-02-26 17:42:00,
2013-02-26 11:47:00,52.9,40.3,29.85,WSW,249,16.0,22.0,62,0.00,,,0.00,meteohub,2013-02-26 17:47:00,
2013-02-26 11:52:00,53.1,39.2,29.84,West,276,11.0,22.0,59,0.00,,,0.00,meteohub,2013-02-26 17:52:00,
2013-02-26 11:57:00,53.1,39.2,29.84,West,263,17.0,22.0,59,0.00,,,0.00,meteohub,2013-02-26 17:57:00,
2013-02-26 12:03:00,53.1,39.2,29.84,West,275,10.0,20.0,59,0.00,,,0.00,meteohub,2013-02-26 18:03:00,
2013-02-26 12:08:00,53.2,39.2,29.84,WNW,283,9.0,20.0,59,0.00,,,0.00,meteohub,2013-02-26 18:08:00,
2013-02-26 12:13:00,53.1,39.2,29.84,WSW,257,16.0,20.0,59,0.00,,,0.00,meteohub,2013-02-26 18:13:00,
2013-02-26 12:18:00,52.9,39.0,29.84,West,270,11.0,20.0,59,0.00,,,0.00,meteohub,2013-02-26 18:18:00,
2013-02-26 12:23:00,53.4,39.9,29.84,West,264,11.0,19.0,60,0.00,,,0.00,meteohub,2013-02-26 18:23:00,
2013-02-26 12:28:00,53.2,39.2,29.83,West,268,8.0,20.0,59,0.00,,,0.00,meteohub,2013-02-26 18:28:00,
2013-02-26 12:33:00,54.0,40.8,29.83,WSW,238,16.0,20.0,61,0.00,,,0.00,meteohub,2013-02-26 18:33:00,
2013-02-26 12:38:00,54.0,39.9,29.83,WSW,257,16.0,20.0,59,0.00,,,0.00,meteohub,2013-02-26 18:38:00,
2013-02-26 12:43:00,53.6,39.2,29.83,WNW,292,8.0,20.0,58,0.00,,,0.00,meteohub,2013-02-26 18:43:00,
2013-02-26 12:48:00,53.8,39.7,29.83,WSW,253,14.0,20.0,59,0.00,,,0.00,meteohub,2013-02-26 18:48:00,
2013-02-26 12:53:00,54.0,40.8,29.82,West,280,13.0,21.0,61,0.00,,,0.00,meteohub,2013-02-26 18:53:00,
2013-02-26 12:58:00,55.0,41.0,29.82,West,271,15.0,21.0,59,0.00,,,0.00,meteohub,2013-02-26 18:58:00,
2013-02-26 13:03:00,54.7,40.3,29.82,West,269,16.0,21.0,58,0.00,,,0.00,meteohub,2013-02-26 19:03:00,
2013-02-26 13:08:00,54.5,40.1,29.82,West,269,16.0,22.0,58,0.00,,,0.00,meteohub,2013-02-26 19:08:00,
2013-02-26 13:13:00,54.3,40.3,29.82,West,265,11.0,22.0,59,0.00,,,0.00,meteohub,2013-02-26 19:13:00,
2013-02-26 13:18:00,55.0,41.0,29.82,West,265,19.0,22.0,59,0.00,,,0.00,meteohub,2013-02-26 19:18:00,
2013-02-26 13:23:00,54.9,40.3,29.81,West,265,12.0,22.0,58,0.00,,,0.00,meteohub,2013-02-26 19:23:00,
2013-02-26 13:28:00,55.0,41.0,29.81,West,263,16.0,22.0,59,0.00,,,0.00,meteohub,2013-02-26 19:28:00,
2013-02-26 13:33:00,55.2,39.7,29.81,West,266,14.0,23.0,56,0.00,,,0.00,meteohub,2013-02-26 19:33:00,
2013-02-26 13:38:00,55.4,40.8,29.81,West,263,13.0,23.0,58,0.00,,,0.00,meteohub,2013-02-26 19:38:00,
2013-02-26 13:43:00,55.8,39.9,29.81,West,264,15.0,23.0,55,0.00,,,0.00,meteohub,2013-02-26 19:43:00,
2013-02-26 13:48:00,55.8,40.8,29.81,WNW,291,12.0,20.0,57,0.00,,,0.00,meteohub,2013-02-26 19:48:00,
2013-02-26 13:53:00,55.9,39.9,29.81,West,267,11.0,20.0,55,0.00,,,0.00,meteohub,2013-02-26 19:53:00,
2013-02-26 13:58:00,56.7,41.2,29.81,West,269,11.0,20.0,56,0.00,,,0.00,meteohub,2013-02-26 19:58:00,
2013-02-26 14:03:00,56.8,42.3,29.81,West,260,14.0,20.0,58,0.00,,,0.00,meteohub,2013-02-26 20:03:00,
2013-02-26 14:08:00,55.9,41.0,29.81,WSW,254,10.0,15.0,57,0.00,,,0.00,meteohub,2013-02-26 20:08:00,
2013-02-26 14:13:00,56.1,40.6,29.81,WNW,295,9.0,20.0,56,0.00,,,0.00,meteohub,2013-02-26 20:13:00,
2013-02-26 14:18:00,56.3,40.8,29.81,West,281,7.0,20.0,56,0.00,,,0.00,meteohub,2013-02-26 20:18:00,
2013-02-26 14:23:00,56.8,41.7,29.81,West,278,7.0,20.0,57,0.00,,,0.00,meteohub,2013-02-26 20:23:00,
2013-02-26 14:28:00,56.5,40.5,29.81,West,265,12.0,19.0,55,0.00,,,0.00,meteohub,2013-02-26 20:28:00,
2013-02-26 14:33:00,56.8,41.4,29.81,West,269,11.0,20.0,56,0.00,,,0.00,meteohub,2013-02-26 20:33:00,
2013-02-26 14:38:00,57.0,41.5,29.81,WNW,302,10.0,22.0,56,0.00,,,0.00,meteohub,2013-02-26 20:38:00,
2013-02-26 14:43:00,57.0,41.0,29.81,West,271,10.0,22.0,55,0.00,,,0.00,meteohub,2013-02-26 20:43:00,
2013-02-26 14:48:00,57.0,41.5,29.81,West,265,11.0,22.0,56,0.00,,,0.00,meteohub,2013-02-26 20:48:00,
2013-02-26 14:53:00,57.4,41.4,29.81,West,278,6.0,18.0,55,0.00,,,0.00,meteohub,2013-02-26 20:53:00,
2013-02-26 14:58:00,57.7,42.1,29.81,WNW,287,10.0,18.0,56,0.00,,,0.00,meteohub,2013-02-26 20:58:00,
2013-02-26 15:03:00,57.9,41.9,29.82,West,273,13.0,20.0,55,0.00,,,0.00,meteohub,2013-02-26 21:03:00,
2013-02-26 15:08:00,57.9,42.8,29.82,West,267,13.0,20.0,57,0.00,,,0.00,meteohub,2013-02-26 21:08:00,
2013-02-26 15:13:00,57.7,41.7,29.82,West,267,12.0,20.0,55,0.00,,,0.00,meteohub,2013-02-26 21:13:00,
2013-02-26 15:18:00,57.6,40.6,29.81,West,263,4.0,16.0,53,0.00,,,0.00,meteohub,2013-02-26 21:18:00,
2013-02-26 15:23:00,57.9,41.4,29.81,West,266,9.0,16.0,54,0.00,,,0.00,meteohub,2013-02-26 21:23:00,
2013-02-26 15:29:00,57.9,42.3,29.82,WSW,241,10.0,16.0,56,0.00,,,0.00,meteohub,2013-02-26 21:29:00,
2013-02-26 15:34:00,57.9,41.9,29.82,WNW,289,7.0,18.0,55,0.00,,,0.00,meteohub,2013-02-26 21:34:00,
2013-02-26 15:39:00,58.1,41.5,29.82,WNW,298,10.0,18.0,54,0.00,,,0.00,meteohub,2013-02-26 21:39:00,
2013-02-26 15:44:00,57.7,40.6,29.83,West,273,9.0,18.0,53,0.00,,,0.00,meteohub,2013-02-26 21:44:00,
2013-02-26 15:49:00,57.6,41.0,29.82,WSW,257,10.0,15.0,54,0.00,,,0.00,meteohub,2013-02-26 21:49:00,
2013-02-26 15:54:00,58.1,42.1,29.83,West,274,9.0,17.0,55,0.00,,,0.00,meteohub,2013-02-26 21:54:00,
2013-02-26 15:59:00,57.9,42.3,29.83,West,267,13.0,18.0,56,0.00,,,0.00,meteohub,2013-02-26 21:59:00,
2013-02-26 16:04:00,57.7,42.6,29.83,West,265,16.0,18.0,57,0.00,,,0.00,meteohub,2013-02-26 22:04:00,
2013-02-26 16:09:00,57.6,41.5,29.83,West,276,10.0,18.0,55,0.00,,,0.00,meteohub,2013-02-26 22:09:00,
2013-02-26 16:14:00,57.6,41.9,29.83,West,267,10.0,16.0,56,0.00,,,0.00,meteohub,2013-02-26 22:14:00,
2013-02-26 16:19:00,57.7,42.1,29.83,West,267,8.0,16.0,56,0.00,,,0.00,meteohub,2013-02-26 22:19:00,
2013-02-26 16:24:00,57.7,42.6,29.83,West,263,10.0,14.0,57,0.00,,,0.00,meteohub,2013-02-26 22:24:00,
2013-02-26 16:29:00,57.7,42.1,29.83,West,259,7.0,14.0,56,0.00,,,0.00,meteohub,2013-02-26 22:29:00,
2013-02-26 16:34:00,57.9,42.8,29.83,West,272,11.0,13.0,57,0.00,,,0.00,meteohub,2013-02-26 22:34:00,
2013-02-26 16:39:00,57.7,42.1,29.83,West,271,11.0,13.0,56,0.00,,,0.00,meteohub,2013-02-26 22:39:00,
2013-02-26 16:44:00,57.9,43.2,29.83,West,266,8.0,14.0,58,0.00,,,0.00,meteohub,2013-02-26 22:44:00,
2013-02-26 16:49:00,57.9,41.9,29.84,West,263,9.0,14.0,55,0.00,,,0.00,meteohub,2013-02-26 22:49:00,
2013-02-26 16:54:00,57.7,41.2,29.84,West,269,10.0,14.0,54,0.00,,,0.00,meteohub,2013-02-26 22:54:00,
2013-02-26 16:59:00,57.9,42.8,29.84,WSW,254,13.0,13.0,57,0.00,,,0.00,meteohub,2013-02-26 22:59:00,
2013-02-26 17:04:00,57.7,42.1,29.85,West,262,7.0,16.0,56,0.00,,,0.00,meteohub,2013-02-26 23:04:00,
2013-02-26 17:09:00,57.7,42.1,29.85,West,261,7.0,16.0,56,0.00,,,0.00,meteohub,2013-02-26 23:09:00,
2013-02-26 17:14:00,57.9,42.8,29.85,West,273,10.0,16.0,57,0.00,,,0.00,meteohub,2013-02-26 23:14:00,
2013-02-26 17:19:00,57.7,42.6,29.85,West,271,11.0,16.0,57,0.00,,,0.00,meteohub,2013-02-26 23:19:00,
2013-02-26 17:24:00,57.7,42.1,29.85,West,271,7.0,16.0,56,0.00,,,0.00,meteohub,2013-02-26 23:24:00,
2013-02-26 17:29:00,57.4,42.8,29.85,West,271,6.0,15.0,58,0.00,,,0.00,meteohub,2013-02-26 23:29:00,
2013-02-26 17:34:00,57.4,43.2,29.86,West,269,6.0,14.0,59,0.00,,,0.00,meteohub,2013-02-26 23:34:00,
2013-02-26 17:39:00,57.0,42.8,29.85,West,274,8.0,14.0,59,0.00,,,0.00,meteohub,2013-02-26 23:39:00,
2013-02-26 17:44:00,57.0,42.8,29.85,West,269,4.0,10.0,59,0.00,,,0.00,meteohub,2013-02-26 23:44:00,
2013-02-26 17:49:00,56.7,43.3,29.86,West,267,4.0,9.0,61,0.00,,,0.00,meteohub,2013-02-26 23:49:00,
2013-02-26 17:54:00,56.5,43.2,29.86,West,268,7.0,9.0,61,0.00,,,0.00,meteohub,2013-02-26 23:54:00,
2013-02-26 17:59:00,56.5,43.2,29.86,West,265,5.0,9.0,61,0.00,,,0.00,meteohub,2013-02-26 23:59:00,
2013-02-26 18:04:00,56.1,43.3,29.86,West,266,6.0,9.0,62,0.00,,,0.00,meteohub,2013-02-27 00:04:00,
2013-02-26 18:09:00,56.1,43.3,29.86,West,266,4.0,9.0,62,0.00,,,0.00,meteohub,2013-02-27 00:09:00,
2013-02-26 18:15:00,55.8,43.7,29.86,West,266,2.0,9.0,64,0.00,,,0.00,meteohub,2013-02-27 00:15:00,
2013-02-26 18:20:00,55.4,43.9,29.86,West,266,4.0,7.0,65,0.00,,,0.00,meteohub,2013-02-27 00:20:00,
2013-02-26 18:25:00,55.8,43.3,29.86,West,265,4.0,7.0,63,0.00,,,0.00,meteohub,2013-02-27 00:25:00,
2013-02-26 18:30:00,55.8,43.3,29.87,West,266,4.0,7.0,63,0.00,,,0.00,meteohub,2013-02-27 00:30:00,
2013-02-26 18:35:00,55.8,43.3,29.86,West,265,7.0,7.0,63,0.00,,,0.00,meteohub,2013-02-27 00:35:00,
2013-02-26 18:40:00,55.8,43.3,29.87,West,266,4.0,7.0,63,0.00,,,0.00,meteohub,2013-02-27 00:40:00,
2013-02-26 18:45:00,55.6,43.2,29.87,West,267,5.0,7.0,63,0.00,,,0.00,meteohub,2013-02-27 00:45:00,
2013-02-26 18:50:00,55.2,43.7,29.87,West,267,4.0,7.0,65,0.00,,,0.00,meteohub,2013-02-27 00:50:00,
2013-02-26 18:55:00,54.9,44.1,29.88,West,267,5.0,7.0,67,0.00,,,0.00,meteohub,2013-02-27 00:55:00,
2013-02-26 19:00:00,54.9,44.1,29.88,West,267,4.0,7.0,67,0.00,,,0.00,meteohub,2013-02-27 01:00:00,
2013-02-26 19:05:00,55.0,43.5,29.89,West,267,4.0,6.0,65,0.00,,,0.00,meteohub,2013-02-27 01:05:00,
2013-02-26 19:10:00,55.0,43.5,29.89,West,265,3.0,6.0,65,0.00,,,0.00,meteohub,2013-02-27 01:10:00,
2013-02-26 19:15:00,55.4,43.0,29.89,West,265,3.0,6.0,63,0.00,,,0.00,meteohub,2013-02-27 01:15:00,
2013-02-26 19:20:00,55.6,43.2,29.90,West,265,4.0,6.0,63,0.00,,,0.00,meteohub,2013-02-27 01:20:00,
2013-02-26 19:25:00,55.2,43.3,29.90,West,265,3.0,6.0,64,0.00,,,0.00,meteohub,2013-02-27 01:25:00,
2013-02-26 19:30:00,55.2,43.3,29.90,West,265,1.0,6.0,64,0.00,,,0.00,meteohub,2013-02-27 01:30:00,
2013-02-26 19:35:00,55.0,43.5,29.91,West,265,2.0,6.0,65,0.00,,,0.00,meteohub,2013-02-27 01:35:00,
2013-02-26 19:40:00,55.2,43.7,29.91,West,265,2.0,5.0,65,0.00,,,0.00,meteohub,2013-02-27 01:40:00,
2013-02-26 19:45:00,55.2,43.7,29.91,West,265,1.0,5.0,65,0.00,,,0.00,meteohub,2013-02-27 01:45:00,
2013-02-26 19:50:00,55.2,43.7,29.91,West,265,3.0,5.0,65,0.00,,,0.00,meteohub,2013-02-27 01:50:00,
2013-02-26 19:55:00,55.4,43.3,29.91,West,265,2.0,5.0,64,0.00,,,0.00,meteohub,2013-02-27 01:55:00,
2013-02-26 20:00:00,55.4,43.3,29.92,West,265,3.0,5.0,64,0.00,,,0.00,meteohub,2013-02-27 02:00:00,
2013-02-26 20:05:00,55.4,43.3,29.92,WSW,258,6.0,7.0,64,0.00,,,0.00,meteohub,2013-02-27 02:05:00,
2013-02-26 20:10:00,55.9,43.2,29.92,WSW,241,5.0,9.0,62,0.00,,,0.00,meteohub,2013-02-27 02:10:00,
2013-02-26 20:16:00,55.9,43.2,29.92,WSW,245,5.0,9.0,62,0.00,,,0.00,meteohub,2013-02-27 02:16:00,
2013-02-26 20:21:00,56.1,43.3,29.92,WSW,246,5.0,9.0,62,0.00,,,0.00,meteohub,2013-02-27 02:21:00,
2013-02-26 20:26:00,55.9,43.2,29.92,WSW,243,4.0,9.0,62,0.00,,,0.00,meteohub,2013-02-27 02:26:00,
2013-02-26 20:31:00,55.9,43.5,29.92,WSW,240,7.0,9.0,63,0.00,,,0.00,meteohub,2013-02-27 02:31:00,
2013-02-26 20:36:00,55.9,43.2,29.92,WSW,244,7.0,9.0,62,0.00,,,0.00,meteohub,2013-02-27 02:36:00,
2013-02-26 20:41:00,56.1,43.3,29.92,WSW,242,6.0,9.0,62,0.00,,,0.00,meteohub,2013-02-27 02:41:00,
2013-02-26 20:46:00,56.1,43.3,29.93,WSW,238,8.0,11.0,62,0.00,,,0.00,meteohub,2013-02-27 02:46:00,
2013-02-26 20:51:00,56.7,43.3,29.93,SW,236,8.0,11.0,61,0.00,,,0.00,meteohub,2013-02-27 02:51:00,
2013-02-26 20:56:00,56.7,43.7,29.93,WSW,248,8.0,11.0,62,0.00,,,0.00,meteohub,2013-02-27 02:56:00,
2013-02-26 21:01:00,56.1,44.1,29.92,SW,225,7.0,11.0,64,0.00,,,0.00,meteohub,2013-02-27 03:01:00,
2013-02-26 21:06:00,56.3,44.6,29.93,WSW,244,10.0,12.0,65,0.00,,,0.00,meteohub,2013-02-27 03:06:00,
2013-02-26 21:11:00,56.1,45.0,29.93,WSW,254,9.0,13.0,66,0.00,,,0.00,meteohub,2013-02-27 03:11:00,
2013-02-26 21:16:00,55.9,45.1,29.93,WSW,248,7.0,13.0,67,0.00,,,0.00,meteohub,2013-02-27 03:16:00,
2013-02-26 21:21:00,55.6,45.1,29.93,WSW,245,7.0,13.0,68,0.00,,,0.00,meteohub,2013-02-27 03:21:00,
2013-02-26 21:26:00,55.6,45.1,29.93,WSW,243,6.0,12.0,68,0.00,,,0.00,meteohub,2013-02-27 03:26:00,
2013-02-26 21:31:00,55.2,44.8,29.93,WSW,249,8.0,12.0,68,0.00,,,0.00,meteohub,2013-02-27 03:31:00,
2013-02-26 21:36:00,55.6,45.5,29.94,WSW,239,9.0,12.0,69,0.00,,,0.00,meteohub,2013-02-27 03:36:00,
2013-02-26 21:41:00,55.6,45.5,29.94,WSW,247,9.0,12.0,69,0.00,,,0.00,meteohub,2013-02-27 03:41:00,
2013-02-26 21:46:00,55.4,45.3,29.94,WSW,239,10.0,13.0,69,0.00,,,0.00,meteohub,2013-02-27 03:46:00,
2013-02-26 21:51:00,55.0,45.5,29.94,WSW,244,6.0,13.0,70,0.00,,,0.00,meteohub,2013-02-27 03:51:00,
2013-02-26 21:56:00,54.9,45.3,29.94,SW,236,7.0,13.0,70,0.00,,,0.00,meteohub,2013-02-27 03:56:00,
2013-02-26 22:01:00,55.0,45.9,29.94,WSW,242,6.0,11.0,71,0.00,,,0.00,meteohub,2013-02-27 04:01:00,
2013-02-26 22:07:00,54.9,45.7,29.95,WSW,242,5.0,11.0,71,0.00,,,0.00,meteohub,2013-02-27 04:07:00,
2013-02-26 22:12:00,54.7,45.9,29.95,WSW,244,6.0,11.0,72,0.00,,,0.00,meteohub,2013-02-27 04:12:00,
2013-02-26 22:17:00,54.1,45.7,29.95,WSW,245,3.0,9.0,73,0.00,,,0.00,meteohub,2013-02-27 04:17:00,
2013-02-26 22:22:00,53.6,45.9,29.95,WSW,245,3.0,9.0,75,0.00,,,0.00,meteohub,2013-02-27 04:22:00,
2013-02-26 22:27:00,53.4,46.0,29.95,WSW,245,6.0,9.0,76,0.00,,,0.00,meteohub,2013-02-27 04:27:00,
2013-02-26 22:32:00,53.6,46.2,29.95,WSW,245,5.0,7.0,76,0.00,,,0.00,meteohub,2013-02-27 04:32:00,
2013-02-26 22:37:00,54.0,46.2,29.95,WSW,246,7.0,8.0,75,0.00,,,0.00,meteohub,2013-02-27 04:37:00,
2013-02-26 22:42:00,54.0,46.2,29.96,WSW,246,6.0,9.0,75,0.00,,,0.00,meteohub,2013-02-27 04:42:00,
2013-02-26 22:47:00,54.0,46.2,29.96,WSW,245,5.0,9.0,75,0.00,,,0.00,meteohub,2013-02-27 04:47:00,
2013-02-26 22:52:00,53.8,46.4,29.96,WSW,245,7.0,9.0,76,0.00,,,0.00,meteohub,2013-02-27 04:52:00,
2013-02-26 22:57:00,53.8,46.4,29.96,WSW,244,6.0,8.0,76,0.00,,,0.00,meteohub,2013-02-27 04:57:00,
2013-02-26 23:00:00,53.8,46.4,29.96,WSW,243,7.0,8.0,76,0.00,,,0.00,meteohub,2013-02-27 05:00:00,
2013-02-26 23:05:00,54.0,46.2,29.95,WSW,243,7.0,9.0,75,0.00,,,0.00,meteohub,2013-02-27 05:05:00,
2013-02-26 23:10:00,54.0,46.2,29.96,WSW,242,6.0,9.0,75,0.00,,,0.00,meteohub,2013-02-27 05:10:00,
2013-02-26 23:15:00,54.0,46.2,29.96,WSW,241,9.0,9.0,75,0.00,,,0.00,meteohub,2013-02-27 05:15:00,
2013-02-26 23:20:00,54.0,46.6,29.96,WSW,241,4.0,9.0,76,0.00,,,0.00,meteohub,2013-02-27 05:20:00,
2013-02-26 23:25:00,54.0,46.6,29.95,WSW,241,6.0,9.0,76,0.00,,,0.00,meteohub,2013-02-27 05:25:00,
2013-02-26 23:30:00,54.1,46.4,29.95,WSW,241,6.0,9.0,75,0.00,,,0.00,meteohub,2013-02-27 05:30:00,
2013-02-26 23:35:00,54.1,46.4,29.95,WSW,241,4.0,9.0,75,0.00,,,0.00,meteohub,2013-02-27 05:35:00,
2013-02-26 23:40:00,54.0,46.6,29.95,WSW,241,3.0,9.0,76,0.00,,,0.00,meteohub,2013-02-27 05:40:00,
2013-02-26 23:45:00,53.8,46.8,29.96,WSW,241,6.0,9.0,77,0.00,,,0.00,meteohub,2013-02-27 05:45:00,
2013-02-26 23:50:00,53.8,46.8,29.96,WSW,241,6.0,8.0,77,0.00,,,0.00,meteohub,2013-02-27 05:50:00,
2013-02-26 23:55:00,53.4,46.4,29.96,WSW,241,4.0,8.0,77,0.00,,,0.00,meteohub,2013-02-27 05:55:00,